SCP
-0 -0 0 0 0 0 0 0 0 -0 -0 -0 -0 0 0 0 0 0 0 0 0 0 0 0 0 0 0 0 0 0 0 0 0 0 0 0 0 0 -0 -0 -0 -0 0
-0 -0 -0 0 0 0 0 0 -0 -0 -0 0 0 0 0 0 0 0 0 0 0 0 0 0 0 0 0 0 0 0 0 0 0 0 0 0 0 -0 -0 -0 -0 -0 -0
0 0 0 -0 0 -0 0 -0 -0 -0 -0 0 0 0 0 0 0 0 0 0 0 0 0 0 0 0 0 0 0 0 0 0 0 0 0 0 0 -0 -0 -0 0 -0 -0
0 -0 -0 -0 -0 -0 -0 -0 -0 -0 -0 -0 0 0 0 0 0 0 0 0 0 0 0 0 0 0 0 0 0 0 0 0 0 0 0 0 0 0 -0 0 -0 0 -0
-0 -0 0 -0 -0 -0 -0 -0 -0 -0 -0 -0 0 0 0 0 0 0 0 0 0 0 0 0 0 0 0 0 0 0 0 0 0 0 0 0 0 0 -0 0 0 0 0
-0 -0 -0 -0 -0 -0 -0 -0 -0 -0 0 0 0 0 0 0 0 0 0 0 0 0 0 0 0 0 0 0 0 0 0 0 0 0 0 0 0 0 0 0 0 0 0
-0 -0 0 -0 -0 -0 -0 -0 -0 -0 -0 0 0 0 0 0 0 0 0 0 0 0 0 0 0 0 0 0 0 0 0 0 0 0 0 0 0 0 0 0 0 0 0
0 -0 -0 0 0 0 -0 -0 -0 -0 -0 -0 -0 -0 -0 0 0 0 0 0 0 0 0 0 0 0 0 0 0 0 0 0 0 0 0 0 0 0 1 1 1 1 0
-0 -0 -0 -0 0 -0 -0 -0 -0 -0 -0 -0 -0 0 0 0 0 0 0 0 0 0 0 0 0 0 0 0 0 0 0 0 0 0 0 0 0 1 1 1 1 1 0
-0 -0 0 0 -0 0 0 -0 -0 -0 -0 -0 0 0 0 0 0 0 0 0 0 0 0 0 0 0 0 0 0 0 0 0 0 0 0 0 0 0 1 0 0 0 0
0 -0 -0 -0 0 0 0 0 -0 -0 -0 0 0 0 0 0 0 0 0 0 0 0 0 0 0 0 0 0 0 0 0 0 0 0 0 0 0 0 0 0 0 0 0
0 -0 -0 0 0 0 0 0 0 0 0 0 0 0 0 0 0 0 0 0 0 0 0 0 0 0 0 0 0 0 0 0 0 0 0 0 0 1 1 1 1 0 1
0 0 0 0 0 0 0 0 0 0 0 0 0 0 0 0 0 0 0 0 0 0 0 0 0 0 0 0 0 0 0 0 0 0 0 1 1 1 1 1 1 1 1
0 0 0 0 0 0 0 0 0 0 0 0 0 0 0 0 0 0 0 0 0 0 0 0 0 0 0 0 0 0 0 0 0 0 0 0 0 1 1 1 1 1 1
0 0 0 0 0 0 0 0 0 0 0 0 0 0 0 0 0 0 0 0 0 0 0 0 0 0 0 0 0 0 0 0 0 0 0 0 0 1 1 1 1 1 1
0 0 0 0 0 0 0 0 0 0 0 0 0 0 0 0 0 0 0 0 0 0 0 0 0 0 0 0 0 0 0 0 0 0 0 0 0 1 1 1 1 1 0
0 0 0 0 0 0 0 0 0 0 0 0 0 0 0 0 0 0 0 0 0 0 0 0 0 0 0 0 0 0 0 0 0 0 0 0 0 1 1 1 1 1 1
0 0 0 0 0 0 0 0 0 0 0 0 0 0 0 0 0 0 0 0 0 0 0 0 0 0 0 0 0 0 0 0 0 0 0 0 0 1 2 1 1 1 1
0 0 0 0 0 0 0 0 0 0 0 0 0 0 0 0 0 0 0 0 0 0 0 0 0 0 0 0 0 0 0 0 0 0 0 0 0 0 1 1 1 1 1
0 0 0 0 0 0 0 0 0 0 0 0 0 0 0 0 0 0 0 0 0 0 0 0 0 0 0 0 0 0 0 0 0 0 0 0 0 0 0 0 0 0 0
0 0 0 0 0 0 0 0 0 0 0 0 0 0 0 0 0 0 0 0 0 0 0 0 0 0 0 0 0 0 0 0 0 0 0 0 0 0 0 0 0 0 0
0 0 0 0 0 0 0 0 0 0 0 0 0 0 0 0 0 0 0 0 0 0 0 0 0 0 0 0 0 0 0 0 0 0 0 0 0 0 0 0 0 0 0
0 0 0 0 0 0 0 0 0 0 0 0 0 0 0 0 0 0 0 0 0 0 0 0 0 0 0 0 0 0 0 0 0 0 0 0 0 0 0 0 0 0 0
0 0 0 0 0 0 0 0 0 0 0 0 0 0 0 0 0 0 0 0 0 0 0 0 0 0 0 0 0 0 0 0 0 0 0 0 0 0 0 0 0 0 0
0 0 0 0 0 0 0 0 0 0 0 0 0 0 0 0 0 0 0 0 0 0 0 0 0 0 0 0 0 0 0 0 0 0 0 0 0 0 0 0 0 0 0
0 0 0 0 0 0 0 0 0 0 0 0 0 0 0 0 0 0 0 0 0 0 0 0 0 0 0 0 0 0 0 0 0 0 0 0 0 0 0 0 0 0 0
Wind_Speed_500mb
20 19 17 17 20 19 16 13 11 9 7 7 9 9 9 9 9 11 11 11 11 10 9 7 6 5 4 3 4 5 6 7 7 7 10 13 15 14 14 12 7 1 2
16 19 18 16 16 16 14 12 9 7 6 6 7 9 9 8 8 9 10 11 11 10 9 8 6 5 4 4 4 3 3 3 3 5 3 2 7 7 8 7 9 10 5
18 19 19 17 15 13 12 11 10 9 8 8 9 8 7 7 7 8 9 10 11 10 8 7 6 5 5 5 5 5 6 7 9 12 11 11 8 6 3 5 2 5 5
19 21 19 17 16 15 14 15 14 12 11 9 9 8 8 8 10 12 12 11 10 9 7 6 4 5 6 8 8 8 9 10 13 16 16 18 19 15 12 14 11 6 4
24 22 19 16 15 15 15 15 14 13 11 10 10 10 10 11 12 11 8 6 8 9 10 10 10 10 10 11 11 11 11 12 14 16 19 20 23 23 18 18 19 12 8
27 25 21 17 16 17 17 16 15 15 13 12 12 10 10 10 10 9 9 10 12 12 11 12 14 15 17 18 17 16 17 16 16 17 18 19 21 24 24 19 24 22 16
28 25 23 22 21 21 22 20 18 16 14 13 12 9 7 8 7 6 7 8 10 11 10 10 10 10 10 10 12 14 17 19 21 21 19 16 18 24 31 27 25 28 24
27 28 27 27 26 24 23 20 18 16 13 9 7 8 9 12 14 14 15 16 16 15 15 15 16 14 12 12 8 9 11 13 16 17 20 19 16 16 21 26 27 31 29
32 32 32 31 30 25 22 19 16 12 9 9 11 15 17 19 20 22 22 24 24 21 20 20 21 20 19 18 15 15 16 14 12 8 11 10 11 12 7 12 20 29 28
36 34 32 29 26 23 19 14 10 7 6 10 14 21 25 26 26 27 26 25 24 25 25 25 24 24 23 21 21 21 20 20 20 16 9 8 9 7 3 3 10 21 25
39 35 32 28 25 19 14 10 4 2 9 15 21 26 28 26 24 25 28 29 29 30 31 31 31 32 30 29 27 28 27 26 27 25 18 12 11 12 7 4 9 18 24
40 34 27 23 20 16 11 5 2 7 14 22 27 28 25 23 23 26 29 32 34 36 37 38 39 41 40 38 36 36 35 33 32 30 26 21 20 19 18 11 6 8 11
37 32 29 26 22 17 12 9 5 10 19 26 26 22 23 26 27 28 29 31 34 36 38 41 45 48 49 47 45 45 44 41 39 37 31 29 30 29 25 19 13 13 11
36 31 28 29 25 19 13 10 10 15 19 22 19 19 21 26 30 32 34 37 41 43 44 44 44 45 46 45 46 48 47 46 44 40 38 33 31 30 32 29 23 18 17
35 25 23 24 21 16 15 14 15 16 17 18 22 27 31 35 39 41 42 44 45 43 42 44 47 49 48 46 43 44 44 43 42 41 41 38 35 33 30 33 34 28 21
36 32 27 24 22 21 23 17 14 13 16 20 26 31 37 43 44 45 45 45 45 43 40 39 40 44 45 44 43 41 37 34 34 34 35 36 35 30 29 30 29 24 22
39 32 30 28 27 24 19 13 11 14 18 24 28 34 39 42 46 51 52 46 38 32 32 32 32 31 34 35 36 35 30 25 23 22 22 26 31 31 27 26 29 25 25
36 29 28 27 22 17 11 8 12 18 23 29 32 36 42 45 50 51 43 37 36 35 33 31 26 28 33 31 27 14 10 6 6 6 5 6 8 15 24 25 27 22 22
27 24 26 25 23 19 12 9 14 20 24 27 32 36 39 42 42 35 35 34 37 36 33 34 28 36 38 27 34 30 29 27 29 27 25 21 18 13 13 10 8 6 6
34 31 27 27 23 18 13 10 14 19 23 26 31 35 37 33 28 30 32 33 33 32 30 30 29 29 22 31 47 37 29 25 22 28 27 29 30 28 25 20 15 10 5
34 31 30 28 25 17 9 8 12 18 20 25 30 29 24 23 26 24 24 24 30 31 35 32 22 29 23 19 29 43 50 39 29 24 20 22 24 24 23 20 18 13 7
38 31 31 28 20 12 7 8 12 15 19 23 17 16 18 24 23 20 21 26 27 32 37 36 22 26 34 21 9 9 12 31 38 36 20 18 21 18 17 16 17 18 14
36 34 32 28 20 10 5 8 11 14 16 11 13 17 22 24 24 23 24 26 26 34 40 37 29 26 31 33 37 13 10 12 14 35 34 17 18 15 18 15 15 16 13
37 37 32 27 18 10 6 10 11 11 6 12 17 23 22 21 22 21 20 22 24 30 35 37 32 30 27 35 36 39 38 34 19 8 31 32 20 15 12 11 7 6 6
40 39 34 27 19 10 5 7 9 6 12 16 20 23 21 19 25 24 26 25 31 33 33 35 35 34 33 31 32 31 30 34 32 31 24 24 21 16 9 5 3 6 6
44 41 35 28 19 10 2 6 6 8 13 18 23 21 17 17 24 25 25 29 30 29 30 32 31 34 36 34 36 37 39 39 35 30 27 24 18 9 9 13 15 16 22
Wind_Direction_500mb
155 146 129 142 148 152 151 146 145 143 126 99 89 90 95 85 68 57 57 56 57 57 58 62 66 66 59 40 31 32 45 62 88 91 77 82 88 88 84 84 67 118 102
154 134 126 132 150 161 162 164 167 155 144 119 88 76 80 79 66 55 47 42 38 36 38 42 43 41 32 20 2 345 316 288 266 265 295 338 93 92 106 80 73 105 131
150 130 120 116 120 130 137 136 138 135 119 108 105 104 99 85 66 52 38 31 26 24 21 12 357 339 317 301 294 288 285 278 263 251 242 220 226 215 227 174 141 114 129
143 129 121 113 109 111 115 120 120 116 111 106 101 94 77 63 55 51 48 42 38 26 15 7 343 314 300 293 285 277 272 268 263 258 251 239 240 245 260 231 210 209 165
142 128 122 119 120 118 116 113 109 106 102 96 82 76 78 77 76 67 55 24 352 342 334 328 320 305 294 286 284 281 272 260 255 254 252 249 243 237 244 243 227 209 221
141 136 132 130 125 119 113 110 110 109 105 106 103 92 85 73 61 35 18 0 347 332 308 305 304 301 294 288 285 279 273 269 266 263 257 254 254 238 237 247 231 220 215
141 138 136 133 128 124 122 119 114 109 103 89 72 56 38 23 7 343 322 328 339 339 332 307 299 302 304 297 284 272 268 268 269 270 270 266 256 241 236 239 246 232 226
140 139 136 131 127 123 120 121 114 109 100 84 54 24 358 339 325 309 308 307 308 312 311 309 303 306 313 310 290 278 264 264 267 277 277 266 260 245 237 240 246 235 226
144 140 136 135 129 129 128 130 133 119 88 50 20 359 342 325 312 304 298 291 289 292 296 296 292 291 296 289 282 283 278 277 261 267 309 265 237 237 244 238 223 229 232
146 145 143 142 137 139 137 132 132 107 59 7 346 337 328 315 303 296 294 296 292 288 288 287 286 282 284 286 277 275 280 274 265 258 269 252 244 212 215 282 255 247 248
158 156 156 152 149 151 152 146 143 348 345 339 332 326 323 316 310 301 296 293 289 285 282 282 280 279 279 278 276 272 271 272 268 264 256 240 226 221 222 260 261 251 264
172 169 168 168 174 183 179 183 347 313 326 323 326 329 329 323 313 303 297 292 289 284 282 282 281 280 278 276 274 272 272 272 267 265 261 251 237 226 239 239 249 226 261
180 181 183 190 201 208 212 237 263 300 315 320 325 329 329 328 322 317 311 303 296 291 288 283 280 280 280 278 276 275 271 270 269 268 270 252 251 243 244 249 245 218 246
190 194 195 202 210 214 224 243 274 296 303 308 317 325 326 326 327 325 320 313 308 304 301 298 295 291 288 287 284 279 277 274 270 268 267 265 257 251 258 248 253 249 258
195 189 182 184 196 212 228 253 281 297 305 313 322 330 334 337 339 338 334 330 326 321 312 305 301 298 297 294 290 285 282 279 274 268 263 261 260 252 252 251 254 254 256
191 192 186 194 206 228 253 268 281 287 300 311 324 331 338 341 341 340 337 333 328 324 324 323 320 316 312 302 293 289 286 282 275 269 262 254 253 254 251 251 249 249 258
194 201 206 210 219 226 237 245 264 290 306 320 327 336 340 340 343 344 344 345 349 349 345 338 334 335 327 317 301 286 282 279 275 275 271 261 252 247 247 244 236 242 254
203 215 217 210 211 221 229 262 294 306 314 320 329 335 339 341 344 347 354 5 13 12 5 3 1 357 353 348 344 319 255 208 147 133 153 196 216 220 231 237 237 246 259
203 209 200 195 197 198 204 247 285 297 306 316 325 333 336 341 348 2 17 21 19 16 19 18 16 2 6 72 74 82 100 107 106 105 105 104 106 124 160 189 217 192 128
196 195 196 189 192 191 205 250 286 297 305 318 327 333 341 359 20 36 33 28 21 16 11 11 16 10 13 79 78 84 86 92 102 94 95 93 90 87 84 81 76 71 78
201 196 198 196 192 198 216 264 291 300 312 325 333 340 9 31 47 45 40 29 21 22 20 16 30 18 56 108 92 78 72 80 86 91 95 97 94 90 97 92 84 70 62
209 200 197 194 192 196 238 286 300 307 324 333 351 27 48 56 53 44 39 36 25 16 14 30 48 33 34 42 137 75 68 61 60 57 71 79 91 99 94 94 99 88 77
207 203 196 195 192 198 260 310 324 325 341 21 61 72 72 65 54 45 40 31 32 27 37 47 49 42 51 48 58 60 42 33 68 51 50 67 76 77 84 95 85 75 75
203 200 199 199 198 216 294 336 340 356 45 93 88 85 81 69 51 37 34 45 47 44 46 51 46 44 46 52 49 55 61 54 54 49 52 54 70 73 62 75 86 92 89
203 199 202 204 206 226 303 348 6 54 108 106 102 102 96 73 50 72 60 62 64 64 55 52 51 44 40 42 42 47 47 48 43 42 30 43 69 60 17 21 2 307 324
198 204 205 208 211 223 323 9 46 98 109 115 123 119 104 83 61 75 78 73 71 66 53 45 47 46 46 50 48 41 37 34 27 20 11 3 359 358 316 319 324 303 299
Wind_Speed_850mb
20 19 17 17 20 19 16 13 11 9 7 7 9 9 9 9 9 11 11 11 11 10 9 7 6 5 4 3 4 5 6 7 7 7 10 13 15 14 14 12 7 1 2
16 19 18 16 16 16 14 12 9 7 6 6 7 9 9 8 8 9 10 11 11 10 9 8 6 5 4 4 4 3 3 3 3 5 3 2 7 7 8 7 9 10 5
18 19 19 17 15 13 12 11 10 9 8 8 9 8 7 7 7 8 9 10 11 10 8 7 6 5 5 5 5 5 6 7 9 12 11 11 8 6 3 5 2 5 5
19 21 19 17 16 15 14 15 14 12 11 9 9 8 8 8 10 12 12 11 10 9 7 6 4 5 6 8 8 8 9 10 13 16 16 18 19 15 12 14 11 6 4
24 22 19 16 15 15 15 15 14 13 11 10 10 10 10 11 12 11 8 6 8 9 10 10 10 10 10 11 11 11 11 12 14 16 19 20 23 23 18 18 19 12 8
27 25 21 17 16 17 17 16 15 15 13 12 12 10 10 10 10 9 9 10 12 12 11 12 14 15 17 18 17 16 17 16 16 17 18 19 21 24 24 19 24 22 16
28 25 23 22 21 21 22 20 18 16 14 13 12 9 7 8 7 6 7 8 10 11 10 10 10 10 10 10 12 14 17 19 21 21 19 16 18 24 31 27 25 28 24
27 28 27 27 26 24 23 20 18 16 13 9 7 8 9 12 14 14 15 16 16 15 15 15 16 14 12 12 8 9 11 13 16 17 20 19 16 16 21 26 27 31 29
32 32 32 31 30 25 22 19 16 12 9 9 11 15 17 19 20 22 22 24 24 21 20 20 21 20 19 18 15 15 16 14 12 8 11 10 11 12 7 12 20 29 28
36 34 32 29 26 23 19 14 10 7 6 10 14 21 25 26 26 27 26 25 24 25 25 25 24 24 23 21 21 21 20 20 20 16 9 8 9 7 3 3 10 21 25
39 35 32 28 25 19 14 10 4 2 9 15 21 26 28 26 24 25 28 29 29 30 31 31 31 32 30 29 27 28 27 26 27 25 18 12 11 12 7 4 9 18 24
40 34 27 23 20 16 11 5 2 7 14 22 27 28 25 23 23 26 29 32 34 36 37 38 39 41 40 38 36 36 35 33 32 30 26 21 20 19 18 11 6 8 11
37 32 29 26 22 17 12 9 5 10 19 26 26 22 23 26 27 28 29 31 34 36 38 41 45 48 49 47 45 45 44 41 39 37 31 29 30 29 25 19 13 13 11
36 31 28 29 25 19 13 10 10 15 19 22 19 19 21 26 30 32 34 37 41 43 44 44 44 45 46 45 46 48 47 46 44 40 38 33 31 30 32 29 23 18 17
35 25 23 24 21 16 15 14 15 16 17 18 22 27 31 35 39 41 42 44 45 43 42 44 47 49 48 46 43 44 44 43 42 41 41 38 35 33 30 33 34 28 21
36 32 27 24 22 21 23 17 14 13 16 20 26 31 37 43 44 45 45 45 45 43 40 39 40 44 45 44 43 41 37 34 34 34 35 36 35 30 29 30 29 24 22
39 32 30 28 27 24 19 13 11 14 18 24 28 34 39 42 46 51 52 46 38 32 32 32 32 31 34 35 36 35 30 25 23 22 22 26 31 31 27 26 29 25 25
36 29 28 27 22 17 11 8 12 18 23 29 32 36 42 45 50 51 43 37 36 35 33 31 26 28 33 31 27 14 10 6 6 6 5 6 8 15 24 25 27 22 22
27 24 26 25 23 19 12 9 14 20 24 27 32 36 39 42 42 35 35 34 37 36 33 34 28 36 38 27 34 30 29 27 29 27 25 21 18 13 13 10 8 6 6
34 31 27 27 23 18 13 10 14 19 23 26 31 35 37 33 28 30 32 33 33 32 30 30 29 29 22 31 47 37 29 25 22 28 27 29 30 28 25 20 15 10 5
34 31 30 28 25 17 9 8 12 18 20 25 30 29 24 23 26 24 24 24 30 31 35 32 22 29 23 19 29 43 50 39 29 24 20 22 24 24 23 20 18 13 7
38 31 31 28 20 12 7 8 12 15 19 23 17 16 18 24 23 20 21 26 27 32 37 36 22 26 34 21 9 9 12 31 38 36 20 18 21 18 17 16 17 18 14
36 34 32 28 20 10 5 8 11 14 16 11 13 17 22 24 24 23 24 26 26 34 40 37 29 26 31 33 37 13 10 12 14 35 34 17 18 15 18 15 15 16 13
37 37 32 27 18 10 6 10 11 11 6 12 17 23 22 21 22 21 20 22 24 30 35 37 32 30 27 35 36 39 38 34 19 8 31 32 20 15 12 11 7 6 6
40 39 34 27 19 10 5 7 9 6 12 16 20 23 21 19 25 24 26 25 31 33 33 35 35 34 33 31 32 31 30 34 32 31 24 24 21 16 9 5 3 6 6
44 41 35 28 19 10 2 6 6 8 13 18 23 21 17 17 24 25 25 29 30 29 30 32 31 34 36 34 36 37 39 39 35 30 27 24 18 9 9 13 15 16 22
Wind_Direction_850mb
155 146 129 142 148 152 151 146 145 143 126 99 89 90 95 85 68 57 57 56 57 57 58 62 66 66 59 40 31 32 45 62 88 91 77 82 88 88 84 84 67 118 102
154 134 126 132 150 161 162 164 167 155 144 119 88 76 80 79 66 55 47 42 38 36 38 42 43 41 32 20 2 345 316 288 266 265 295 338 93 92 106 80 73 105 131
150 130 120 116 120 130 137 136 138 135 119 108 105 104 99 85 66 52 38 31 26 24 21 12 357 339 317 301 294 288 285 278 263 251 242 220 226 215 227 174 141 114 129
143 129 121 113 109 111 115 120 120 116 111 106 101 94 77 63 55 51 48 42 38 26 15 7 343 314 300 293 285 277 272 268 263 258 251 239 240 245 260 231 210 209 165
142 128 122 119 120 118 116 113 109 106 102 96 82 76 78 77 76 67 55 24 352 342 334 328 320 305 294 286 284 281 272 260 255 254 252 249 243 237 244 243 227 209 221
141 136 132 130 125 119 113 110 110 109 105 106 103 92 85 73 61 35 18 0 347 332 308 305 304 301 294 288 285 279 273 269 266 263 257 254 254 238 237 247 231 220 215
141 138 136 133 128 124 122 119 114 109 103 89 72 56 38 23 7 343 322 328 339 339 332 307 299 302 304 297 284 272 268 268 269 270 270 266 256 241 236 239 246 232 226
140 139 136 131 127 123 120 121 114 109 100 84 54 24 358 339 325 309 308 307 308 312 311 309 303 306 313 310 290 278 264 264 267 277 277 266 260 245 237 240 246 235 226
144 140 136 135 129 129 128 130 133 119 88 50 20 359 342 325 312 304 298 291 289 292 296 296 292 291 296 289 282 283 278 277 261 267 309 265 237 237 244 238 223 229 232
146 145 143 142 137 139 137 132 132 107 59 7 346 337 328 315 303 296 294 296 292 288 288 287 286 282 284 286 277 275 280 274 265 258 269 252 244 212 215 282 255 247 248
158 156 156 152 149 151 152 146 143 348 345 339 332 326 323 316 310 301 296 293 289 285 282 282 280 279 279 278 276 272 271 272 268 264 256 240 226 221 222 260 261 251 264
172 169 168 168 174 183 179 183 347 313 326 323 326 329 329 323 313 303 297 292 289 284 282 282 281 280 278 276 274 272 272 272 267 265 261 251 237 226 239 239 249 226 261
180 181 183 190 201 208 212 237 263 300 315 320 325 329 329 328 322 317 311 303 296 291 288 283 280 280 280 278 276 275 271 270 269 268 270 252 251 243 244 249 245 218 246
190 194 195 202 210 214 224 243 274 296 303 308 317 325 326 326 327 325 320 313 308 304 301 298 295 291 288 287 284 279 277 274 270 268 267 265 257 251 258 248 253 249 258
195 189 182 184 196 212 228 253 281 297 305 313 322 330 334 337 339 338 334 330 326 321 312 305 301 298 297 294 290 285 282 279 274 268 263 261 260 252 252 251 254 254 256
191 192 186 194 206 228 253 268 281 287 300 311 324 331 338 341 341 340 337 333 328 324 324 323 320 316 312 302 293 289 286 282 275 269 262 254 253 254 251 251 249 249 258
194 201 206 210 219 226 237 245 264 290 306 320 327 336 340 340 343 344 344 345 349 349 345 338 334 335 327 317 301 286 282 279 275 275 271 261 252 247 247 244 236 242 254
203 215 217 210 211 221 229 262 294 306 314 320 329 335 339 341 344 347 354 5 13 12 5 3 1 357 353 348 344 319 255 208 147 133 153 196 216 220 231 237 237 246 259
203 209 200 195 197 198 204 247 285 297 306 316 325 333 336 341 348 2 17 21 19 16 19 18 16 2 6 72 74 82 100 107 106 105 105 104 106 124 160 189 217 192 128
196 195 196 189 192 191 205 250 286 297 305 318 327 333 341 359 20 36 33 28 21 16 11 11 16 10 13 79 78 84 86 92 102 94 95 93 90 87 84 81 76 71 78
201 196 198 196 192 198 216 264 291 300 312 325 333 340 9 31 47 45 40 29 21 22 20 16 30 18 56 108 92 78 72 80 86 91 95 97 94 90 97 92 84 70 62
209 200 197 194 192 196 238 286 300 307 324 333 351 27 48 56 53 44 39 36 25 16 14 30 48 33 34 42 137 75 68 61 60 57 71 79 91 99 94 94 99 88 77
207 203 196 195 192 198 260 310 324 325 341 21 61 72 72 65 54 45 40 31 32 27 37 47 49 42 51 48 58 60 42 33 68 51 50 67 76 77 84 95 85 75 75
203 200 199 199 198 216 294 336 340 356 45 93 88 85 81 69 51 37 34 45 47 44 46 51 46 44 46 52 49 55 61 54 54 49 52 54 70 73 62 75 86 92 89
203 199 202 204 206 226 303 348 6 54 108 106 102 102 96 73 50 72 60 62 64 64 55 52 51 44 40 42 42 47 47 48 43 42 30 43 69 60 17 21 2 307 324
198 204 205 208 211 223 323 9 46 98 109 115 123 119 104 83 61 75 78 73 71 66 53 45 47 46 46 50 48 41 37 34 27 20 11 3 359 358 316 319 324 303 299